Voltar ao catálogo

KUIPER-00111

AtivoComunicaçõesLEO
NORAD 65149·PAYLOAD·🇺🇸 United States

Lançado Aug 11, 2025 de Cape Canaveral Space Force Station

Loading…

Próximas Passagens (próximas 24 horas)

TLE

AtualizadoSource: CelesTrak SupGP

Época: Sep 14, 2026, 14:25 UTC

1 65149C 25171T   26257.60082176 -.00003100  00000+0 -40589-3 0  2574
2 65149  51.8970  57.6296 0000653 120.3935 192.3591 14.79924978    10

Acompanhe KUIPER-00111 em tempo real com AllMySat

Download on the App Store